ProjectID,Date,Electric Generation,Electric Utility Import,Facility Electric Load
,YYYY-MM-DD,kW,kW,kW
319,2016-03-22,40.9,,40.9
319,2016-03-23,96.05333333333334,,96.05333333333334
319,2016-03-24,96.05333333333334,,96.05333333333334
319,2016-03-25,96.04,,96.04
319,2016-03-26,96.14666666666666,,96.14666666666666
319,2016-03-27,96.17333333333333,,96.17333333333333
319,2016-03-28,95.86,,95.86
319,2016-03-29,95.94666666666666,,95.94666666666666
319,2016-03-30,95.96,,95.96
319,2016-03-31,95.44,,95.44
319,2016-04-01,95.38,,95.38
319,2016-04-02,95.98666666666666,,95.98666666666666
319,2016-04-03,94.38666666666667,,94.38666666666667
319,2016-04-04,91.86666666666667,,91.86666666666667
319,2016-04-05,92.21333333333332,,92.21333333333332
319,2016-04-06,94.06,,94.06
319,2016-04-07,95.87333333333333,,95.87333333333333
319,2016-04-08,95.84666666666668,,95.84666666666668
319,2016-04-09,95.27333333333333,,95.27333333333333
319,2016-04-10,94.96,,94.96
319,2016-04-11,95.88,,95.88
319,2016-04-12,96.02666666666666,,96.02666666666666
319,2016-04-13,96.16000000000001,,96.16000000000001
319,2016-04-14,96.15333333333332,,96.15333333333332
319,2016-04-15,96.04666666666667,,96.04666666666667
319,2016-04-16,95.94666666666666,,95.94666666666666
319,2016-04-17,95.5,,95.5
319,2016-04-18,95.38,,95.38
319,2016-04-19,96.03333333333335,,96.03333333333335
319,2016-04-20,96.01333333333334,,96.01333333333334
319,2016-04-21,95.22000000000001,,95.22000000000001
319,2016-04-22,94.88666666666667,,94.88666666666667
319,2016-04-23,95.96,,95.96
319,2016-04-24,96.05333333333334,,96.05333333333334
319,2016-04-25,96.18666666666667,,96.18666666666667
319,2016-04-26,95.78666666666668,,95.78666666666668
319,2016-04-27,96.0,,96.0
319,2016-04-28,96.02666666666666,,96.02666666666666
319,2016-04-29,84.00666666666667,,84.00666666666667
319,2016-04-30,0.0,,0.0
319,2016-05-01,0.0,,0.0
319,2016-05-02,0.47333333333333333,,0.47333333333333333
319,2016-05-03,0.8666666666666667,,0.8666666666666667
319,2016-05-04,1.36,,1.36
319,2016-05-05,0.7933333333333333,,0.7933333333333333
319,2016-05-06,0.4666666666666666,,0.4666666666666666
319,2016-05-07,0.5933333333333334,,0.5933333333333334
319,2016-05-08,0.5,,0.5
319,2016-05-09,0.86,,0.86
319,2016-05-10,0.7799999999999999,,0.7799999999999999
319,2016-05-11,12.12,,12.12
319,2016-05-12,51.25333333333333,,51.25333333333333
319,2016-05-13,95.60000000000001,,95.60000000000001
319,2016-05-14,95.56666666666666,,95.56666666666666
319,2016-05-15,95.91333333333334,,95.91333333333334
319,2016-05-16,95.92666666666666,,95.92666666666666
319,2016-05-17,95.75999999999999,,95.75999999999999
319,2016-05-18,95.59333333333332,,95.59333333333332
319,2016-05-19,95.54,,95.54
319,2016-05-20,95.44,,95.44
319,2016-05-21,95.52,,95.52
319,2016-05-22,95.32666666666667,,95.32666666666667
319,2016-05-23,55.413333333333334,,55.413333333333334
319,2016-05-24,0.13333333333333333,,0.13333333333333333
319,2016-05-25,14.513333333333334,,14.513333333333334
319,2016-05-26,76.89999999999999,,76.89999999999999
319,2016-05-27,94.62666666666667,,94.62666666666667
319,2016-05-28,94.58,,94.58
319,2016-05-29,94.58,,94.58
319,2016-05-30,94.54666666666667,,94.54666666666667
319,2016-05-31,67.46666666666667,,67.46666666666667
319,2016-06-01,57.72,,57.72
319,2016-06-02,94.50666666666666,,94.50666666666666
319,2016-06-03,94.5,,94.5
319,2016-06-04,94.54,,94.54
319,2016-06-05,94.54666666666667,,94.54666666666667
319,2016-06-06,77.5,,77.5
319,2016-06-07,94.52666666666666,,94.52666666666666
319,2016-06-08,94.92,,94.92
319,2016-06-09,95.10666666666667,,95.10666666666667
319,2016-06-10,94.92,,94.92
319,2016-06-11,95.06,,95.06
319,2016-06-12,94.57333333333334,,94.57333333333334
319,2016-06-13,94.86666666666667,,94.86666666666667
319,2016-06-14,94.87333333333333,,94.87333333333333
319,2016-06-15,70.71333333333332,,70.71333333333332
319,2016-06-16,66.67333333333333,,66.67333333333333
319,2016-06-17,94.44666666666666,,94.44666666666666
319,2016-06-18,94.43333333333334,,94.43333333333334
319,2016-06-19,94.33999999999999,,94.33999999999999
319,2016-06-20,94.33333333333333,,94.33333333333333
319,2016-06-21,94.32666666666667,,94.32666666666667
319,2016-06-22,94.46666666666665,,94.46666666666665
319,2016-06-23,94.54666666666667,,94.54666666666667
319,2016-06-24,94.37333333333333,,94.37333333333333
319,2016-06-25,94.35333333333334,,94.35333333333334
319,2016-06-26,94.31333333333333,,94.31333333333333
319,2016-06-27,94.34666666666668,,94.34666666666668
319,2016-06-28,94.32,,94.32
319,2016-06-29,94.31333333333333,,94.31333333333333
319,2016-06-30,94.31333333333333,,94.31333333333333
319,2016-07-01,94.32,,94.32
319,2016-07-02,94.32,,94.32
319,2016-07-03,94.32666666666667,,94.32666666666667
319,2016-07-04,94.32,,94.32
319,2016-07-05,94.28666666666668,,94.28666666666668
319,2016-07-06,92.72666666666667,,92.72666666666667
319,2016-07-07,94.25333333333333,,94.25333333333333
319,2016-07-08,94.37333333333333,,94.37333333333333
319,2016-07-09,94.37333333333333,,94.37333333333333
319,2016-07-10,94.34666666666668,,94.34666666666668
319,2016-07-11,94.36,,94.36
319,2016-07-12,94.36,,94.36
319,2016-07-13,92.80666666666667,,92.80666666666667
319,2016-07-14,93.54666666666667,,93.54666666666667
319,2016-07-15,93.60000000000001,,93.60000000000001
319,2016-07-16,94.37333333333333,,94.37333333333333
319,2016-07-17,94.37333333333333,,94.37333333333333
319,2016-07-18,94.32666666666667,,94.32666666666667
319,2016-07-19,94.40666666666668,,94.40666666666668
319,2016-07-20,94.39999999999999,,94.39999999999999
319,2016-07-21,93.58666666666666,,93.58666666666666
319,2016-07-22,90.31333333333333,,90.31333333333333
319,2016-07-23,91.23333333333333,,91.23333333333333
319,2016-07-24,93.61333333333333,,93.61333333333333
319,2016-07-25,93.49333333333334,,93.49333333333334
319,2016-07-26,93.55333333333334,,93.55333333333334
319,2016-07-27,92.12,,92.12
319,2016-07-28,92.85333333333334,,92.85333333333334
319,2016-07-29,92.88666666666667,,92.88666666666667
319,2016-07-30,94.44,,94.44
319,2016-07-31,94.43333333333334,,94.43333333333334
319,2016-08-01,94.41333333333334,,94.41333333333334
319,2016-08-02,94.39999999999999,,94.39999999999999
319,2016-08-03,94.37333333333333,,94.37333333333333
319,2016-08-04,94.35333333333334,,94.35333333333334
319,2016-08-05,92.83333333333333,,92.83333333333333
319,2016-08-06,92.09333333333332,,92.09333333333332
319,2016-08-07,93.57333333333334,,93.57333333333334
319,2016-08-08,94.37333333333333,,94.37333333333333
319,2016-08-09,20.746666666666666,,20.746666666666666
319,2016-08-10,12.393333333333333,,12.393333333333333
319,2016-08-11,65.98,,65.98
319,2016-08-12,90.25999999999999,,90.25999999999999
319,2016-08-13,89.14666666666666,,89.14666666666666
319,2016-08-14,91.94,,91.94
319,2016-08-15,94.48666666666666,,94.48666666666666
319,2016-08-16,93.62,,93.62
319,2016-08-17,94.44,,94.44
319,2016-08-18,92.86,,92.86
319,2016-08-19,92.82,,92.82
319,2016-08-20,91.13333333333333,,91.13333333333333
319,2016-08-21,92.80666666666667,,92.80666666666667
319,2016-08-22,94.44,,94.44
319,2016-08-23,94.32,,94.32
319,2016-08-24,94.30666666666667,,94.30666666666667
319,2016-08-25,94.27333333333333,,94.27333333333333
319,2016-08-26,94.28666666666668,,94.28666666666668
319,2016-08-27,94.27333333333333,,94.27333333333333
319,2016-08-28,94.23333333333333,,94.23333333333333
319,2016-08-29,94.25333333333333,,94.25333333333333
319,2016-08-30,94.32,,94.32
319,2016-08-31,94.23333333333333,,94.23333333333333
319,2016-09-01,94.24000000000001,,94.24000000000001
319,2016-09-02,94.28666666666668,,94.28666666666668
319,2016-09-03,94.39999999999999,,94.39999999999999
319,2016-09-04,94.46,,94.46
319,2016-09-05,94.34666666666668,,94.34666666666668
319,2016-09-06,94.22666666666667,,94.22666666666667
319,2016-09-07,94.18666666666667,,94.18666666666667
319,2016-09-08,94.12,,94.12
319,2016-09-09,94.26666666666667,,94.26666666666667
319,2016-09-10,94.26666666666667,,94.26666666666667
319,2016-09-11,94.26666666666667,,94.26666666666667
319,2016-09-12,94.64,,94.64
319,2016-09-13,94.56666666666666,,94.56666666666666
319,2016-09-14,94.25999999999999,,94.25999999999999
319,2016-09-15,94.80666666666667,,94.80666666666667
319,2016-09-16,94.7,,94.7
319,2016-09-17,94.46666666666665,,94.46666666666665
319,2016-09-18,94.25333333333333,,94.25333333333333
319,2016-09-19,94.26666666666667,,94.26666666666667
319,2016-09-20,94.25333333333333,,94.25333333333333
319,2016-09-21,94.22000000000001,,94.22000000000001
319,2016-09-22,94.42666666666666,,94.42666666666666
319,2016-09-23,94.36666666666667,,94.36666666666667
319,2016-09-24,94.88,,94.88
319,2016-09-25,94.94666666666666,,94.94666666666666
319,2016-09-26,94.71333333333332,,94.71333333333332
319,2016-09-27,94.48,,94.48
319,2016-09-28,94.82666666666667,,94.82666666666667
319,2016-09-29,94.8,,94.8
319,2016-09-30,94.86666666666667,,94.86666666666667
319,2016-10-01,95.17333333333333,,95.17333333333333
319,2016-10-02,94.67333333333333,,94.67333333333333
319,2016-10-03,51.98666666666667,,51.98666666666667
319,2016-10-04,75.94,,75.94
319,2016-10-05,94.86666666666667,,94.86666666666667
319,2016-10-06,94.86,,94.86
319,2016-10-07,94.70666666666666,,94.70666666666666
319,2016-10-08,94.58666666666666,,94.58666666666666
319,2016-10-09,94.88666666666667,,94.88666666666667
319,2016-10-10,95.27333333333333,,95.27333333333333
319,2016-10-11,95.15333333333332,,95.15333333333332
319,2016-10-12,94.98666666666666,,94.98666666666666
319,2016-10-13,95.06,,95.06
319,2016-10-14,95.24000000000001,,95.24000000000001
319,2016-10-15,95.12,,95.12
319,2016-10-16,94.60666666666667,,94.60666666666667
319,2016-10-17,94.07333333333334,,94.07333333333334
319,2016-10-18,94.07333333333334,,94.07333333333334
319,2016-10-19,94.27333333333333,,94.27333333333333
319,2016-10-20,95.25333333333333,,95.25333333333333
319,2016-10-21,94.31333333333333,,94.31333333333333
319,2016-10-22,95.07333333333334,,95.07333333333334
319,2016-10-23,94.94,,94.94
319,2016-10-24,95.12,,95.12
319,2016-10-25,95.18666666666667,,95.18666666666667
319,2016-10-26,95.25999999999999,,95.25999999999999
319,2016-10-27,95.33333333333333,,95.33333333333333
319,2016-10-28,95.18,,95.18
319,2016-10-29,95.23333333333333,,95.23333333333333
319,2016-10-30,94.94,,94.94
319,2016-10-31,95.19333333333333,,95.19333333333333
319,2016-11-01,94.79333333333334,,94.79333333333334
319,2016-11-02,94.87333333333333,,94.87333333333333
319,2016-11-03,94.99333333333334,,94.99333333333334
319,2016-11-04,95.21333333333332,,95.21333333333332
319,2016-11-05,95.17333333333333,,95.17333333333333
319,2016-11-06,95.02666666666666,,95.02666666666666
319,2016-11-07,95.28666666666668,,95.28666666666668
319,2016-11-08,94.92,,94.92
319,2016-11-09,95.12666666666667,,95.12666666666667
319,2016-11-10,95.23333333333333,,95.23333333333333
319,2016-11-11,95.05333333333334,,95.05333333333334
319,2016-11-12,95.18,,95.18
319,2016-11-13,95.15333333333332,,95.15333333333332
319,2016-11-14,95.17333333333333,,95.17333333333333
319,2016-11-15,95.14666666666666,,95.14666666666666
319,2016-11-16,94.96,,94.96
319,2016-11-17,95.02666666666666,,95.02666666666666
319,2016-11-18,95.16666666666667,,95.16666666666667
319,2016-11-19,94.88666666666667,,94.88666666666667
319,2016-11-20,94.82,,94.82
319,2016-11-21,93.68666666666667,,93.68666666666667
319,2016-11-22,94.47333333333334,,94.47333333333334
319,2016-11-23,94.51333333333334,,94.51333333333334
319,2016-11-24,95.01333333333334,,95.01333333333334
319,2016-11-25,95.27999999999999,,95.27999999999999
319,2016-11-26,95.25999999999999,,95.25999999999999
319,2016-11-27,95.16666666666667,,95.16666666666667
319,2016-11-28,94.13333333333333,,94.13333333333333
319,2016-11-29,94.92666666666666,,94.92666666666666
319,2016-11-30,94.89333333333333,,94.89333333333333
319,2016-12-01,94.90666666666668,,94.90666666666668
319,2016-12-02,95.03333333333335,,95.03333333333335
319,2016-12-03,95.08666666666666,,95.08666666666666
319,2016-12-04,94.44666666666666,,94.44666666666666
319,2016-12-05,94.37333333333333,,94.37333333333333
319,2016-12-06,95.15333333333332,,95.15333333333332
319,2016-12-07,95.21333333333332,,95.21333333333332
319,2016-12-08,95.17333333333333,,95.17333333333333
319,2016-12-09,93.07333333333334,,93.07333333333334
319,2016-12-10,90.48,,90.48
319,2016-12-11,91.38,,91.38
319,2016-12-12,94.38666666666667,,94.38666666666667
319,2016-12-13,95.18666666666667,,95.18666666666667
319,2016-12-14,93.42666666666666,,93.42666666666666
319,2016-12-15,89.08,,89.08
319,2016-12-16,85.17999999999999,,85.17999999999999
319,2016-12-17,91.89999999999999,,91.89999999999999
319,2016-12-18,94.45333333333333,,94.45333333333333
319,2016-12-19,88.04,,88.04
319,2016-12-20,88.88666666666667,,88.88666666666667
319,2016-12-21,93.01333333333334,,93.01333333333334
319,2016-12-22,94.33999999999999,,94.33999999999999
319,2016-12-23,95.2,,95.2
319,2016-12-24,95.17333333333333,,95.17333333333333
319,2016-12-25,94.49333333333334,,94.49333333333334
319,2016-12-26,92.09333333333332,,92.09333333333332
319,2016-12-27,51.04666666666666,,51.04666666666666
319,2016-12-28,95.32,,95.32
319,2016-12-29,94.34666666666668,,94.34666666666668
319,2016-12-30,94.18666666666667,,94.18666666666667
319,2016-12-31,93.33333333333333,,93.33333333333333
319,2017-01-01,94.81333333333333,,94.81333333333333
319,2017-01-02,93.36666666666667,,93.36666666666667
319,2017-01-03,95.30666666666667,,95.30666666666667
319,2017-01-04,94.91333333333334,,94.91333333333334
319,2017-01-05,91.77333333333333,,91.77333333333333
319,2017-01-06,90.56666666666666,,90.56666666666666
319,2017-01-07,88.59333333333332,,88.59333333333332
319,2017-01-08,88.04666666666667,,88.04666666666667
319,2017-01-09,87.0,,87.0
319,2017-01-10,91.30666666666667,,91.30666666666667
319,2017-01-11,95.16666666666667,,95.16666666666667
319,2017-01-12,94.81333333333333,,94.81333333333333
319,2017-01-13,94.48666666666666,,94.48666666666666
319,2017-01-14,90.48,,90.48
319,2017-01-15,92.50666666666666,,92.50666666666666
319,2017-01-16,92.34666666666668,,92.34666666666668
319,2017-01-17,93.43333333333334,,93.43333333333334
319,2017-01-18,95.28666666666668,,95.28666666666668
319,2017-01-19,95.26666666666667,,95.26666666666667
319,2017-01-20,95.27999999999999,,95.27999999999999
319,2017-01-21,95.15333333333332,,95.15333333333332
319,2017-01-22,95.10000000000001,,95.10000000000001
319,2017-01-23,93.13333333333333,,93.13333333333333
319,2017-01-24,0.12,,0.12
319,2017-01-25,0.0,,0.0
319,2017-01-26,32.446666666666665,,32.446666666666665
319,2017-01-27,95.16666666666667,,95.16666666666667
319,2017-01-28,95.2,,95.2
319,2017-01-29,95.08666666666666,,95.08666666666666
319,2017-01-30,91.58666666666666,,91.58666666666666
319,2017-01-31,89.92,,89.92
319,2017-02-01,93.83999999999999,,93.83999999999999
319,2017-02-02,92.91333333333334,,92.91333333333334
319,2017-02-03,91.37333333333333,,91.37333333333333
319,2017-02-04,90.54666666666667,,90.54666666666667
319,2017-02-05,93.68666666666667,,93.68666666666667
319,2017-02-06,93.78666666666668,,93.78666666666668
319,2017-02-07,93.87333333333333,,93.87333333333333
319,2017-02-08,95.10666666666667,,95.10666666666667
319,2017-02-09,89.53333333333335,,89.53333333333335
319,2017-02-10,87.93333333333334,,87.93333333333334
319,2017-02-11,93.07333333333334,,93.07333333333334
319,2017-02-12,92.43333333333334,,92.43333333333334
319,2017-02-13,92.36666666666667,,92.36666666666667
319,2017-02-14,93.56666666666666,,93.56666666666666
319,2017-02-15,94.98,,94.98
319,2017-02-16,92.47333333333334,,92.47333333333334
319,2017-02-17,92.56,,92.56
319,2017-02-18,93.61333333333333,,93.61333333333333
319,2017-02-19,95.06,,95.06
319,2017-02-20,95.03333333333335,,95.03333333333335
319,2017-02-21,93.5,,93.5
319,2017-02-22,95.13333333333333,,95.13333333333333
319,2017-02-23,94.57333333333334,,94.57333333333334
319,2017-02-24,94.45333333333333,,94.45333333333333
319,2017-02-25,94.14666666666666,,94.14666666666666
319,2017-02-26,94.83333333333333,,94.83333333333333
319,2017-02-27,94.40666666666668,,94.40666666666668
319,2017-02-28,94.92666666666666,,94.92666666666666
319,2017-03-01,94.42,,94.42
319,2017-03-02,93.88,,93.88
319,2017-03-03,91.21333333333332,,91.21333333333332
319,2017-03-04,87.00666666666666,,87.00666666666666
319,2017-03-05,87.63333333333333,,87.63333333333333
319,2017-03-06,91.56,,91.56
319,2017-03-07,95.08,,95.08
319,2017-03-08,94.93333333333334,,94.93333333333334
319,2017-03-09,95.01333333333334,,95.01333333333334
319,2017-03-10,93.78666666666668,,93.78666666666668
319,2017-03-11,86.32666666666667,,86.32666666666667
319,2017-03-12,86.64,,86.64
319,2017-03-13,89.45333333333333,,89.45333333333333
319,2017-03-14,89.90666666666668,,89.90666666666668
319,2017-03-15,88.71333333333332,,88.71333333333332
319,2017-03-16,91.12666666666667,,91.12666666666667
319,2017-03-17,93.32,,93.32
319,2017-03-18,92.8,,92.8
319,2017-03-19,95.15333333333332,,95.15333333333332
319,2017-03-20,94.29333333333334,,94.29333333333334
319,2017-03-21,95.16000000000001,,95.16000000000001
319,2017-03-22,91.71333333333332,,91.71333333333332
319,2017-03-23,91.47333333333334,,91.47333333333334
319,2017-03-24,94.61333333333333,,94.61333333333333
319,2017-03-25,95.14666666666666,,95.14666666666666
319,2017-03-26,94.56,,94.56
319,2017-03-27,95.08,,95.08
319,2017-03-28,95.02,,95.02
319,2017-03-29,95.07333333333334,,95.07333333333334
319,2017-03-30,94.98,,94.98
319,2017-03-31,95.16666666666667,,95.16666666666667
319,2017-04-01,95.00666666666666,,95.00666666666666
319,2017-04-02,94.92666666666666,,94.92666666666666
319,2017-04-03,94.83999999999999,,94.83999999999999
319,2017-04-04,94.85333333333334,,94.85333333333334
319,2017-04-05,95.14666666666666,,95.14666666666666
319,2017-04-06,94.92,,94.92
319,2017-04-07,94.67333333333333,,94.67333333333333
319,2017-04-08,95.02,,95.02
319,2017-04-09,94.73333333333333,,94.73333333333333
319,2017-04-10,94.5,,94.5
319,2017-04-11,94.12,,94.12
319,2017-04-12,94.63333333333333,,94.63333333333333
319,2017-04-13,94.93333333333334,,94.93333333333334
319,2017-04-14,94.88,,94.88
319,2017-04-15,94.58,,94.58
319,2017-04-16,94.12666666666667,,94.12666666666667
319,2017-04-17,94.33999999999999,,94.33999999999999
319,2017-04-18,95.05333333333334,,95.05333333333334
319,2017-04-19,94.97333333333334,,94.97333333333334
319,2017-04-20,94.72666666666667,,94.72666666666667
319,2017-04-21,94.77999999999999,,94.77999999999999
319,2017-04-22,95.12666666666667,,95.12666666666667
319,2017-04-23,94.71333333333332,,94.71333333333332
319,2017-04-24,86.08666666666666,,86.08666666666666
319,2017-04-25,95.14,,95.14
319,2017-04-26,94.57333333333334,,94.57333333333334
319,2017-04-27,93.98666666666666,,93.98666666666666
319,2017-04-28,94.04666666666667,,94.04666666666667
319,2017-04-29,94.15333333333332,,94.15333333333332
319,2017-04-30,95.19333333333333,,95.19333333333333
319,2017-05-01,94.24666666666667,,94.24666666666667
319,2017-05-02,94.32,,94.32
319,2017-05-03,94.98666666666666,,94.98666666666666
319,2017-05-04,94.60666666666667,,94.60666666666667
319,2017-05-05,94.80666666666667,,94.80666666666667
319,2017-05-06,94.28666666666668,,94.28666666666668
319,2017-05-07,94.81333333333333,,94.81333333333333
319,2017-05-08,94.98666666666666,,94.98666666666666
319,2017-05-09,25.153333333333332,,25.153333333333332
319,2017-05-10,0.11333333333333334,,0.11333333333333334
319,2017-05-11,0.0,,0.0
319,2017-05-12,0.0,,0.0
319,2017-05-13,0.0,,0.0
319,2017-05-14,0.0,,0.0
319,2017-05-15,0.0,,0.0
319,2017-05-16,0.0,,0.0
319,2017-05-17,0.0,,0.0
319,2017-05-18,0.0,,0.0
319,2017-05-19,0.0,,0.0
319,2017-05-20,0.0,,0.0
319,2017-05-21,0.0,,0.0
319,2017-05-22,0.0,,0.0
319,2017-05-23,0.0,,0.0
319,2017-05-24,0.0,,0.0
319,2017-05-25,0.0,,0.0
319,2017-05-26,0.0,,0.0
319,2017-05-27,0.0,,0.0
319,2017-05-28,0.0,,0.0
319,2017-05-29,0.0,,0.0
319,2017-05-30,0.0,,0.0
319,2017-05-31,0.0,,0.0
319,2017-06-01,0.0,,0.0
319,2017-06-02,13.479999999999999,,13.479999999999999
319,2017-06-03,62.84,,62.84
319,2017-06-04,94.41333333333334,,94.41333333333334
319,2017-06-05,94.18,,94.18
319,2017-06-06,21.91333333333333,,21.91333333333333
319,2017-06-07,22.173333333333332,,22.173333333333332
319,2017-06-08,22.653333333333332,,22.653333333333332
319,2017-06-09,38.96,,38.96
319,2017-06-10,67.83333333333333,,67.83333333333333
319,2017-06-11,67.46666666666667,,67.46666666666667
319,2017-06-12,73.26666666666667,,73.26666666666667
319,2017-06-13,80.97333333333333,,80.97333333333333
319,2017-06-14,81.04,,81.04
319,2017-06-15,81.09333333333333,,81.09333333333333
319,2017-06-16,80.92,,80.92
319,2017-06-17,80.88666666666667,,80.88666666666667
319,2017-06-18,80.88,,80.88
319,2017-06-19,81.13333333333334,,81.13333333333334
319,2017-06-20,81.04,,81.04
319,2017-06-21,27.093333333333334,,27.093333333333334
319,2017-06-22,11.246666666666668,,11.246666666666668
319,2017-06-23,66.66,,66.66
319,2017-06-24,80.92,,80.92
319,2017-06-25,80.88666666666667,,80.88666666666667
319,2017-06-26,80.98666666666666,,80.98666666666666
319,2017-06-27,81.02,,81.02
319,2017-06-28,84.19333333333334,,84.19333333333334
319,2017-06-29,85.43333333333334,,85.43333333333334
319,2017-06-30,85.38,,85.38
319,2017-07-01,84.54,,84.54
319,2017-07-02,85.42,,85.42
319,2017-07-03,85.49333333333334,,85.49333333333334
319,2017-07-04,85.33999999999999,,85.33999999999999
319,2017-07-05,85.36,,85.36
319,2017-07-06,85.39999999999999,,85.39999999999999
319,2017-07-07,85.34666666666668,,85.34666666666668
319,2017-07-08,85.52,,85.52
319,2017-07-09,85.44,,85.44
319,2017-07-10,85.26666666666667,,85.26666666666667
319,2017-07-11,85.13333333333334,,85.13333333333334
319,2017-07-12,85.38,,85.38
319,2017-07-13,85.42666666666666,,85.42666666666666
319,2017-07-14,85.38666666666667,,85.38666666666667
319,2017-07-15,85.33999999999999,,85.33999999999999
319,2017-07-16,84.64666666666666,,84.64666666666666
319,2017-07-17,83.80666666666666,,83.80666666666666
319,2017-07-18,84.57333333333334,,84.57333333333334
319,2017-07-19,83.05333333333333,,83.05333333333333
319,2017-07-20,83.83333333333333,,83.83333333333333
319,2017-07-21,83.01333333333334,,83.01333333333334
319,2017-07-22,85.39999999999999,,85.39999999999999
319,2017-07-23,85.33999999999999,,85.33999999999999
319,2017-07-24,85.25333333333333,,85.25333333333333
319,2017-07-25,85.22666666666667,,85.22666666666667
319,2017-07-26,85.34666666666668,,85.34666666666668
319,2017-07-27,85.40666666666668,,85.40666666666668
319,2017-07-28,85.28666666666668,,85.28666666666668
319,2017-07-29,85.39999999999999,,85.39999999999999
319,2017-07-30,85.28,,85.28
319,2017-07-31,83.00666666666667,,83.00666666666667
319,2017-08-01,83.0,,83.0
319,2017-08-02,84.52,,84.52
319,2017-08-03,83.78666666666668,,83.78666666666668
319,2017-08-04,83.75333333333333,,83.75333333333333
319,2017-08-05,85.27333333333333,,85.27333333333333
319,2017-08-06,85.3,,85.3
319,2017-08-07,85.17999999999999,,85.17999999999999
319,2017-08-08,85.16,,85.16
319,2017-08-09,83.67333333333333,,83.67333333333333
319,2017-08-10,82.98,,82.98
319,2017-08-11,85.16666666666667,,85.16666666666667
319,2017-08-12,84.46666666666667,,84.46666666666667
319,2017-08-13,84.50666666666667,,84.50666666666667
319,2017-08-14,85.20666666666666,,85.20666666666666
319,2017-08-15,85.18666666666667,,85.18666666666667
319,2017-08-16,83.74666666666667,,83.74666666666667
319,2017-08-17,85.28666666666668,,85.28666666666668
319,2017-08-18,85.25333333333333,,85.25333333333333
319,2017-08-19,82.96666666666667,,82.96666666666667
319,2017-08-20,84.48666666666666,,84.48666666666666
319,2017-08-21,82.89999999999999,,82.89999999999999
319,2017-08-22,80.17999999999999,,80.17999999999999